This is the latest recevied weather packets stored in our database for station/object DC1MPP-9. If no packets are shown the sender has not sent any weather packets the latest 10 day(s).
| Time | Temp. | Humidity | Pressure | Rain* | Wind** | Luminosity | Snow |
|---|---|---|---|---|---|---|---|
| 1787847793 | 28.89° C | 63% | 956 hPa | - | - | - | - |
| 1787847552 | 29.44° C | 62% | 956 hPa | - | - | - | - |
| 1787847311 | 29.44° C | 65% | 956 hPa | - | - | - | - |
| 1787846588 | 30° C | 63% | 956 hPa | - | - | - | - |
| 1787846106 | 30° C | 61% | 956 hPa | - | - | - | - |
| 1787845624 | 30° C | 61% | 956 hPa | - | - | - | - |
| 1787845383 | 30° C | 59% | 956 hPa | - | - | - | - |
| 1787845142 | 30° C | 57% | 956 hPa | - | - | - | - |
| 1787844900 | 30° C | 55% | 956 hPa | - | - | - | - |
| 1787844659 | 30.56° C | 56% | 956 hPa | - | - | - | - |
| 1787844418 | 30.56° C | 55% | 956 hPa | - | - | - | - |
| 1787844177 | 30.56° C | 51% | 957 hPa | - | - | - | - |
| 1787843936 | 30.56° C | 49% | 956 hPa | - | - | - | - |
| 1787843454 | 30.56° C | 45% | 956 hPa | - | - | - | - |
| 1787843213 | 30.56° C | 47% | 956 hPa | - | - | - | - |
| 1787842972 | 31.11° C | 48% | 956 hPa | - | - | - | - |
| 1787842731 | 31.11° C | 48% | 956 hPa | - | - | - | - |
| 1787842490 | 31.11° C | 48% | 957 hPa | - | - | - | - |
| 1787841766 | 30.56° C | 45% | 956 hPa | - | - | - | - |
| 1787841525 | 31.11° C | 43% | 956 hPa | - | - | - | - |
| 1787841043 | 31.67° C | 45% | 956 hPa | - | - | - | - |
| 1787840802 | 31.11° C | 44% | 956 hPa | - | - | - | - |
| 1787840561 | 31.67° C | 45% | 956 hPa | - | - | - | - |
| 1787840320 | 31.67° C | 45% | 956 hPa | - | - | - | - |
| 1787840079 | 31.11° C | 48% | 956 hPa | - | - | - | - |
* Rain since midnight (hover to see other rain measurements)
** Current wind speed in m/s (hover to see current wind gust speed)